This is the latest recevied weather packets stored in our database for station/object KI7JYE. If no packets are shown the sender has not sent any weather packets the latest 10 day(s).
| Time | Temp. | Humidity | Pressure | Rain* | Wind** | Luminosity | Snow |
|---|---|---|---|---|---|---|---|
| 1778015596 | 16.11° C | 74% | 1015.3 hPa | 0 mm | - | 270 W/m² | - |
| 1778015293 | 16.67° C | 75% | 1015.3 hPa | 0 mm | - | 249 W/m² | - |
| 1778014990 | 16.11° C | 76% | 1015.2 hPa | 0 mm | - | 247 W/m² | - |
| 1778014687 | 16.11° C | 74% | 1015.6 hPa | 0 mm | - | 228 W/m² | - |
| 1778014385 | 16.11° C | 74% | 1015.3 hPa | 0 mm | - | 202 W/m² | - |
| 1778014081 | 16.11° C | 75% | 1015.5 hPa | 0 mm | - | 211 W/m² | - |
| 1778013779 | 16.11° C | 75% | 1015.3 hPa | 0 mm | - | 213 W/m² | - |
| 1778013476 | 16.11° C | 73% | 1015.6 hPa | 0 mm | - | 200 W/m² | - |
| 1778013173 | 16.11° C | 75% | 1015.5 hPa | 0 mm | - | 193 W/m² | - |
| 1778012869 | 16.11° C | 75% | 1015.7 hPa | 0 mm | - | 186 W/m² | - |
| 1778012565 | 16.11° C | 74% | 1015.7 hPa | 0 mm | - | 183 W/m² | - |
| 1778012262 | 16.11° C | 74% | 1015.8 hPa | 0 mm | - | 182 W/m² | - |
| 1778011959 | 16.11° C | 75% | 1015.5 hPa | 0 mm | - | 180 W/m² | - |
| 1778011658 | 16.11° C | 75% | 1015.6 hPa | 0 mm | - | 176 W/m² | - |
| 1778011355 | 15.56° C | 75% | 1015.6 hPa | 0 mm | - | 187 W/m² | - |
| 1778011050 | 15.56° C | 78% | 1015.6 hPa | 0 mm | - | 209 W/m² | - |
| 1778010748 | 16.11° C | 75% | 1015.7 hPa | 0 mm | - | 216 W/m² | - |
| 1778010445 | 15.56° C | 76% | 1015.6 hPa | 0 mm | - | 201 W/m² | - |
| 1778010141 | 16.11° C | 75% | 1015.6 hPa | 0 mm | - | 177 W/m² | - |
| 1778009837 | 15.56° C | 76% | 1015.7 hPa | 0 mm | - | 162 W/m² | - |
| 1778009534 | 15.56° C | 75% | 1015.9 hPa | 0 mm | - | 155 W/m² | - |
| 1778009233 | 15.56° C | 75% | 1015.6 hPa | 0 mm | - | 161 W/m² | - |
| 1778008930 | 15.56° C | 76% | 1015.7 hPa | 0 mm | - | 167 W/m² | - |
| 1778008628 | 15.56° C | 76% | 1015.8 hPa | 0 mm | - | 167 W/m² | - |
| 1778008326 | 15.56° C | 77% | 1015.8 hPa | 0 mm | - | 176 W/m² | - |
* Rain latest hour (hover to see other rain measurements)
** Current wind speed in m/s (hover to see current wind gust speed)